Location: Seattle
(47.6064°N, 122.3308°W)
Time: 05:03:44
(UTC-07:00)

Tiros 1 - Pass Details

Date: 06 August 2021
Orbit: 630 x 663 km, 48.4° (Epoch: 25 September)

Event Time Altitude Azimuth Distance (km) Brightness Sun altitude
Rises 21:19:31 0° 284° (WNW) 2,984 12.1 -7.2°
Reaches altitude 10° 21:21:53 10° 282° (WNW) 2,066 11.0 -7.6°
Maximum altitude 21:26:38 74° 198° (SSW) 678 7.2 -8.2°
Enters shadow 21:31:11 11° 114° (ESE) 1,982 9.0 -8.8°
